EW5412 Weather Reports


Display with metric or nautical units.
time (UTC)temp
F
wind
direction
speed
MPH
gust
MPH
rain 1hr
in
rain 24hr
in
rain mn
in
humidity
%
barometer
mb
20260504201526 76 352 15.0 29.0 0.00 0.00 0.00 45 1000.9
20260504200020 75 299 11.0 27.0 0.00 0.00 0.00 49 1001.0
20260504194519 76 290 14.0 29.0 0.00 0.00 0.00 49 1001.0
20260504193017 75 280 16.0 26.0 0.00 0.00 0.00 48 1001.1
20260504191515 75 288 17.0 29.0 0.00 0.00 0.00 48 1001.2
20260504190012 75 311 12.0 25.0 0.00 0.00 0.00 50 1001.5
20260504184514 74 332 14.0 26.0 0.00 0.00 0.00 50 1001.7
20260504183007 73 270 15.0 28.0 0.00 0.00 0.00 52 1001.8
20260504181506 73 302 15.0 25.0 0.00 0.00 0.00 52 1002.0
20260504180006 73 271 10.0 26.0 0.00 0.00 0.00 54 1002.1
20260504174617 73 296 10.0 20.0 0.00 0.00 0.00 55 1002.3
20260504173059 71 304 11.0 21.0 0.00 0.00 0.00 57 1002.5
20260504171555 70 308 12.0 21.0 0.00 0.00 0.00 57 1002.8
20260504081522 51 270 6.0 10.0 0.00 0.00 0.00 75 1006.1
20260504060104 51 288 6.0 11.0 0.00 0.00 0.00 77 1007.8
20260504044600 50 277 2.0 7.0 0.00 0.00 0.00 78 1008.6
20260504043049 50 280 3.0 6.0 0.00 0.00 0.00 79 1008.6
20260504041547 50 233 3.0 8.0 0.00 0.00 0.00 79 1008.4
20260504040044 50 256 4.0 7.0 0.00 0.00 0.00 79 1008.6
20260504034551 50 252 3.0 8.0 0.00 0.00 0.00 80 1008.9
20260504033052 50 257 3.0 7.0 0.00 0.00 0.00 81 1008.9
20260504031541 50 249 5.0 8.0 0.00 0.00 0.00 81 1009.0
20260504030039 49 257 5.0 9.0 0.00 0.00 0.00 82 1009.1
20260504024544 49 243 3.0 6.0 0.00 0.00 0.00 84 1009.2
20260504023038 49 256 2.0 5.0 0.00 0.00 0.00 84 1009.2
20260504021538 49 262 1.0 7.0 0.00 0.00 0.00 84 1009.3
20260504020041 49 257 2.0 6.0 0.00 0.00 0.00 83 1009.2
20260504014539 50 207 2.0 6.0 0.00 0.00 0.00 82 1009.2
20260504013039 50 271 3.0 9.0 0.00 0.00 0.00 82 1009.2
20260504011534 50 252 4.0 8.0 0.00 0.00 0.00 81 1009.2
20260504010046 51 263 6.0 10.0 0.00 0.00 0.00 81 1009.2
20260504004534 51 256 5.0 9.0 0.00 0.00 0.00 80 1009.3
20260504003033 51 229 3.0 8.0 0.00 0.00 0.00 80 1009.3
20260504001532 52 229 4.0 9.0 0.00 0.00 0.00 79 1009.5
20260504000029 52 252 4.0 9.0 0.00 0.00 0.00 80 1009.7
20260503234530 52 256 5.0 12.0 0.00 0.00 0.00 80 1009.7
20260503233026 51 195 5.0 11.0 0.00 0.00 0.00 80 1009.9
20260503231526 52 256 8.0 12.0 0.00 0.00 0.00 78 1010.1
20260503230023 52 257 6.0 12.0 0.00 0.00 0.00 79 1010.3
20260503224522 51 254 4.0 11.0 0.00 0.00 0.00 81 1010.5
20260503223019 51 217 5.0 12.0 0.00 0.00 0.00 81 1010.8
20260503221528 50 250 4.0 10.0 0.00 0.00 0.00 83 1010.9
20260503220019 49 198 6.0 13.0 0.00 0.00 0.00 84 1010.9
20260503214517 48 228 4.0 9.0 0.00 0.00 0.00 85 1010.9
20260503213027 48 245 4.0 10.0 0.00 0.00 0.00 84 1011.0
20260503211519 48 266 6.0 13.0 0.00 0.00 0.00 84 1011.2
20260503210013 48 225 8.0 13.0 0.00 0.00 0.00 85 1011.4
20260503204510 48 267 5.0 10.0 0.00 0.00 0.00 85 1011.9
20260503203007 47 252 6.0 12.0 0.00 0.00 0.00 85 1012.4